Location: Unspecified
(0.0000°N, 0.0000°E)
Time: 07:35:45
(UTC+00:00)

Vanguard 1 Rocket - Pass Details

Date: 29 November 2022
Orbit: 651 x 4224 km, 34.3° (Epoch: 04 February)

Event Time Altitude Azimuth Distance (km) Brightness Sun altitude
Rises 18:38:47 0° 247° (WSW) 8,288 14.5 -11.7°
Reaches altitude 10° 18:47:52 10° 231° (SW) 7,429 13.3 -13.8°
Maximum altitude 19:04:40 20° 190° (S) 6,195 12.0 -17.7°
Drops below altitude 10° 19:18:33 10° 148° (SSE) 6,085 11.5 -20.9°
Sets 19:24:46 0° 132° (SE) 6,482 11.5 -22.3°
